Weather History for KANE - January, 2013

Change the Weather History Date:

Wednesday, January 9, 2013

  Actual Average (WUND) Record (WUND)
Temperature  
Mean Temperature 30 °F -  
Max Temperature 35 °F - - (-1)
Min Temperature 24 °F - - (-1)
Degree Days  
Heating Degree Days 36    
Moisture  
Dew Point 25 °F    
Average Humidity 75    
Maximum Humidity 87    
Minimum Humidity 56    
Precipitation  
Precipitation 0.00 in - - ()
Sea Level Pressure  
Sea Level Pressure 30.09 in    
Wind  
Wind Speed 12 mph (SW)    
Max Wind Speed 22 mph    
Max Gust Speed 33 mph    
Visibility 10 miles    
Events      
Averages and records for this station are not official NWS values.
T = Trace of Precipitation, MM = Missing Value Source: NWS Daily Summary

Daily Weather History Graph

Daily Weather History Graph

Search for Another Location

Airport or City:

Trip Planner

Search our weather history database for the weather conditions in past years. The results will help you decide how hot, cold, wet, or windy it might be!

Date:

Astronomy

Jan. 09, 2013 Rise Set
Actual Time 7:50 AM CST 4:50 PM CST
Civil Twilight 7:17 AM CST 5:23 PM CST
Nautical Twilight 6:40 AM CST 6:00 PM CST
Astronomical Twilight 6:04 AM CST 6:35 PM CST
Moon 5:30 AM CST (1/9) 2:52 PM CST (1/9)
Length of Visible Light 10h 06m
Length of Day
8h 59m
Waning Crescent, 6% of the Moon is Illuminated
Jan 9
Waning Crescent
Jan 11
New
Jan 18
First Quarter
Jan 26
Full
Feb 3
Last Quarter

Hourly Weather History & Observations

Time (CST) Temp. Windchill Dew Point Humidity Pressure Visibility Wind Dir Wind Speed Gust Speed Precip Events Conditions
12:14 AM 32.0 °F 23.6 °F 28.4 °F 87% 29.88 in 10.0 mi SW 10.4 mph - N/A   Scattered Clouds
12:34 AM 33.8 °F 25.3 °F 28.4 °F 81% 29.88 in 10.0 mi SW 11.5 mph 16.1 mph N/A   Mostly Cloudy
12:54 AM 33.8 °F 25.3 °F 28.4 °F 81% 29.90 in 10.0 mi WSW 11.5 mph 16.1 mph N/A   Mostly Cloudy
1:14 AM 35.6 °F 28.0 °F 28.4 °F 75% 29.90 in 10.0 mi West 10.4 mph - N/A   Overcast
1:33 AM 35.6 °F 28.0 °F 28.4 °F 75% 29.89 in 10.0 mi SW 10.4 mph - N/A   Overcast
1:54 AM 35.6 °F 28.6 °F 28.4 °F 75% 29.90 in 10.0 mi SW 9.2 mph - N/A   Scattered Clouds
2:14 AM 33.8 °F 27.0 °F 28.4 °F 81% 29.90 in 10.0 mi SW 8.1 mph - N/A   Clear
2:33 AM 33.8 °F 25.8 °F 28.4 °F 81% 29.90 in 10.0 mi SW 10.4 mph - N/A   Clear
2:54 AM 33.8 °F 27.0 °F 28.4 °F 81% 29.90 in 10.0 mi SW 8.1 mph - N/A   Clear
3:14 AM 33.8 °F 25.8 °F 28.4 °F 81% 29.91 in 10.0 mi SW 10.4 mph - N/A   Clear
3:33 AM 33.8 °F 24.8 °F 28.4 °F 81% 29.91 in 10.0 mi SW 12.7 mph - N/A   Clear
3:54 AM 35.6 °F 27.1 °F 28.4 °F 75% 29.91 in 10.0 mi WSW 12.7 mph 20.7 mph N/A   Clear
4:14 AM 35.6 °F 25.5 °F 28.4 °F 75% 29.91 in 10.0 mi WSW 17.3 mph 27.6 mph N/A   Clear
4:34 AM 35.6 °F 26.2 °F 28.4 °F 75% 29.93 in 10.0 mi WSW 15.0 mph 21.9 mph N/A   Clear
4:54 AM 35.6 °F 24.8 °F 26.6 °F 70% 29.94 in 10.0 mi West 19.6 mph 26.5 mph N/A   Clear
5:14 AM 35.6 °F 24.8 °F 26.6 °F 70% 29.95 in 10.0 mi West 19.6 mph 31.1 mph N/A   Scattered Clouds
5:34 AM 35.6 °F 26.6 °F 26.6 °F 70% 29.96 in 10.0 mi West 13.8 mph 26.5 mph N/A   Mostly Cloudy
5:54 AM 35.6 °F 24.2 °F 26.6 °F 70% 29.97 in 10.0 mi West 21.9 mph 28.8 mph N/A   Mostly Cloudy
6:14 AM 35.6 °F 24.8 °F 26.6 °F 70% 29.99 in 10.0 mi West 19.6 mph 25.3 mph N/A   Overcast
6:45 AM 33.8 °F 22.8 °F 24.8 °F 70% 30.02 in 10.0 mi West 18.4 mph 33.4 mph N/A   Scattered Clouds
6:54 AM 33.8 °F 21.9 °F 24.8 °F 70% 30.02 in 10.0 mi West 21.9 mph 32.2 mph N/A   Clear
7:45 AM 32.0 °F 19.8 °F 24.8 °F 75% 30.05 in 10.0 mi West 20.7 mph 27.6 mph N/A   Clear
8:45 AM 30.2 °F 17.1 °F 21.2 °F 69% 30.10 in 10.0 mi West 21.9 mph 27.6 mph N/A   Clear
9:45 AM 30.2 °F 17.8 °F 21.2 °F 69% 30.13 in 10.0 mi West 19.6 mph 24.2 mph N/A   Clear
10:45 AM 30.2 °F 19.8 °F 21.2 °F 69% 30.15 in 10.0 mi West 13.8 mph - N/A   Clear
12:45 PM 33.8 °F 23.5 °F 21.2 °F 60% 30.23 in 10.0 mi WSW 16.1 mph 20.7 mph N/A   Clear
1:45 PM 33.8 °F 24.8 °F 21.2 °F 60% 30.26 in 10.0 mi WSW 12.7 mph 20.7 mph N/A   Clear
2:45 PM 35.6 °F 28.6 °F 21.2 °F 56% 30.30 in 10.0 mi WSW 9.2 mph 16.1 mph N/A   Clear
3:45 PM 35.6 °F 28.6 °F 21.2 °F 56% 30.31 in 10.0 mi WSW 9.2 mph - N/A   Clear
4:45 PM 33.8 °F 27.7 °F 21.2 °F 60% 30.34 in 10.0 mi WSW 6.9 mph - N/A   Clear
5:45 PM 30.2 °F - 23.0 °F 75% 30.32 in 10.0 mi Calm Calm - N/A   Clear
8:45 PM 26.6 °F 21.2 °F 21.2 °F 80% 30.30 in 10.0 mi SE 4.6 mph - N/A   Clear
9:14 PM 28.4 °F 22.2 °F 21.2 °F 74% 30.30 in 10.0 mi SE 5.8 mph - N/A   Clear
9:34 PM 24.8 °F 16.9 °F 21.2 °F 86% 30.30 in 10.0 mi SSE 6.9 mph - N/A   Clear
9:54 PM 28.4 °F 24.6 °F 23.0 °F 80% 30.29 in 10.0 mi SE 3.5 mph - N/A   Clear
10:14 PM 26.6 °F 20.0 °F 23.0 °F 86% 30.28 in 10.0 mi SE 5.8 mph - N/A   Clear
10:34 PM 28.4 °F 23.3 °F 23.0 °F 80% 30.28 in 10.0 mi SE 4.6 mph - N/A   Clear
10:54 PM 26.6 °F 19.1 °F 23.0 °F 86% 30.28 in 10.0 mi SE 6.9 mph - N/A   Clear
11:14 PM 28.4 °F 20.4 °F 23.0 °F 80% 30.28 in 10.0 mi SSE 8.1 mph - N/A   Clear
11:34 PM 28.4 °F 19.7 °F 23.0 °F 80% 30.28 in 10.0 mi SSE 9.2 mph - N/A   Clear
11:54 PM 28.4 °F 21.2 °F 23.0 °F 80% 30.28 in 10.0 mi SSE 6.9 mph - N/A   Clear